Time,TemperatureF,DewpointF,PressureIn,WindDirection,WindDirectionDegrees,WindSpeedMPH,WindSpeedGustMPH,Humidity,HourlyPrecipIn,Conditions,Clouds,dailyrainin,SoftwareType,DateUTC
2013-04-02 00:08:00,42.8,29.1,29.84,WNW,292,0.0,-999.0,58,-99.99,,,0.00,Acu-Link.com,2013-04-02 07:08:00,
2013-04-02 00:24:00,41.0,26.9,29.84,North,0,0.0,-999.0,57,-99.99,,,0.00,Acu-Link.com,2013-04-02 07:24:00,
2013-04-02 00:39:00,41.0,26.5,29.84,West,270,0.0,-999.0,56,-99.99,,,0.00,Acu-Link.com,2013-04-02 07:39:00,
2013-04-02 00:54:00,41.0,26.9,29.85,ENE,67,0.0,-999.0,57,-99.99,,,0.00,Acu-Link.com,2013-04-02 07:54:00,
2013-04-02 01:10:00,41.0,26.9,29.86,ENE,67,0.0,-999.0,57,-99.99,,,0.00,Acu-Link.com,2013-04-02 08:10:00,
2013-04-02 01:25:00,41.0,27.4,29.86,ENE,67,0.0,-999.0,58,-99.99,,,0.00,Acu-Link.com,2013-04-02 08:25:00,
2013-04-02 01:40:00,41.0,26.9,29.86,SE,135,0.0,-999.0,57,-99.99,,,0.00,Acu-Link.com,2013-04-02 08:40:00,
2013-04-02 01:55:00,41.0,26.9,29.86,NNW,337,0.0,-999.0,57,-99.99,,,0.00,Acu-Link.com,2013-04-02 08:55:00,
2013-04-02 02:10:00,41.0,27.4,29.87,North,0,0.0,-999.0,58,-99.99,,,0.00,Acu-Link.com,2013-04-02 09:10:00,
2013-04-02 02:25:00,39.2,26.1,29.87,NNW,337,0.0,-999.0,59,-99.99,,,0.00,Acu-Link.com,2013-04-02 09:25:00,
2013-04-02 02:41:00,35.6,25.7,29.88,SW,225,0.0,-999.0,67,-99.99,,,0.00,Acu-Link.com,2013-04-02 09:41:00,
2013-04-02 03:11:00,35.6,26.1,29.88,NE,45,0.0,-999.0,68,-99.99,,,0.00,Acu-Link.com,2013-04-02 10:11:00,
2013-04-02 03:26:00,33.8,25.4,29.88,SSE,157,0.0,-999.0,71,-99.99,,,0.00,Acu-Link.com,2013-04-02 10:26:00,
2013-04-02 03:41:00,33.8,26.1,29.88,ESE,112,0.0,-999.0,73,-99.99,,,0.00,Acu-Link.com,2013-04-02 10:41:00,
2013-04-02 03:57:00,33.8,26.4,29.89,ESE,112,0.0,-999.0,74,-99.99,,,0.00,Acu-Link.com,2013-04-02 10:57:00,
2013-04-02 04:12:00,33.8,26.1,29.89,ESE,112,0.0,-999.0,73,-99.99,,,0.00,Acu-Link.com,2013-04-02 11:12:00,
2013-04-02 04:27:00,32.0,25.0,29.89,ESE,112,0.0,-999.0,75,-99.99,,,0.00,Acu-Link.com,2013-04-02 11:27:00,
2013-04-02 04:42:00,32.0,25.3,29.90,ESE,112,0.0,-999.0,76,-99.99,,,0.00,Acu-Link.com,2013-04-02 11:42:00,
2013-04-02 04:58:00,32.0,25.3,29.89,ESE,112,0.0,-999.0,76,-99.99,,,0.00,Acu-Link.com,2013-04-02 11:58:00,
2013-04-02 05:13:00,32.0,25.6,29.89,ESE,112,0.0,-999.0,77,-99.99,,,0.00,Acu-Link.com,2013-04-02 12:13:00,
2013-04-02 05:28:00,32.0,25.9,29.89,ESE,112,0.0,-999.0,78,-99.99,,,0.00,Acu-Link.com,2013-04-02 12:28:00,
2013-04-02 05:43:00,32.0,25.9,29.89,SE,135,0.0,-999.0,78,-99.99,,,0.00,Acu-Link.com,2013-04-02 12:43:00,
2013-04-02 05:58:00,32.0,26.2,29.90,ESE,112,0.0,-999.0,79,-99.99,,,0.00,Acu-Link.com,2013-04-02 12:58:00,
2013-04-02 06:13:00,32.0,26.2,29.90,ESE,112,0.0,-999.0,79,-99.99,,,0.00,Acu-Link.com,2013-04-02 13:13:00,
2013-04-02 06:28:00,32.0,25.9,29.89,ESE,112,0.0,-999.0,78,-99.99,,,0.00,Acu-Link.com,2013-04-02 13:28:00,
2013-04-02 06:43:00,32.0,25.6,29.90,South,180,0.0,-999.0,77,-99.99,,,0.00,Acu-Link.com,2013-04-02 13:43:00,
2013-04-02 06:58:00,32.0,25.9,29.90,ESE,112,0.0,-999.0,78,-99.99,,,0.00,Acu-Link.com,2013-04-02 13:58:00,
2013-04-02 07:14:00,32.0,25.9,29.90,ESE,112,0.0,-999.0,78,-99.99,,,0.00,Acu-Link.com,2013-04-02 14:14:00,
2013-04-02 07:29:00,32.0,25.6,29.90,South,180,0.0,-999.0,77,-99.99,,,0.00,Acu-Link.com,2013-04-02 14:29:00,
2013-04-02 07:44:00,32.0,25.6,29.90,ENE,67,0.0,-999.0,77,-99.99,,,0.00,Acu-Link.com,2013-04-02 14:44:00,
2013-04-02 07:59:00,33.8,27.1,29.91,ENE,67,0.0,-999.0,76,-99.99,,,0.00,Acu-Link.com,2013-04-02 14:59:00,
2013-04-02 08:14:00,35.6,28.1,29.91,SE,135,0.0,-999.0,74,-99.99,,,0.00,Acu-Link.com,2013-04-02 15:14:00,
2013-04-02 08:30:00,35.6,28.1,29.91,South,180,0.0,-999.0,74,-99.99,,,0.00,Acu-Link.com,2013-04-02 15:30:00,
2013-04-02 08:45:00,35.6,27.5,29.91,East,90,0.0,-999.0,72,-99.99,,,0.00,Acu-Link.com,2013-04-02 15:45:00,
2013-04-02 09:00:00,37.4,28.5,29.91,NE,45,0.0,-999.0,70,-99.99,,,0.00,Acu-Link.com,2013-04-02 16:00:00,
2013-04-02 09:15:00,41.0,31.6,29.91,SSE,157,0.0,-999.0,69,-99.99,,,0.00,Acu-Link.com,2013-04-02 16:15:00,
2013-04-02 09:30:00,42.8,31.9,29.91,SE,135,0.0,-999.0,65,-99.99,,,0.00,Acu-Link.com,2013-04-02 16:30:00,
2013-04-02 09:46:00,44.6,31.6,29.91,SW,225,2.0,-999.0,60,-99.99,,,0.00,Acu-Link.com,2013-04-02 16:46:00,
2013-04-02 10:01:00,46.4,32.0,29.91,South,180,2.0,-999.0,57,-99.99,,,0.00,Acu-Link.com,2013-04-02 17:01:00,
2013-04-02 10:16:00,50.0,33.6,29.91,West,270,0.0,-999.0,53,-99.99,,,0.00,Acu-Link.com,2013-04-02 17:16:00,
2013-04-02 11:02:00,51.8,30.6,29.91,SW,225,1.6,-999.0,44,-99.99,,,0.00,Acu-Link.com,2013-04-02 18:02:00,
2013-04-02 11:17:00,55.4,33.9,29.91,SSW,202,3.1,-999.0,44,-99.99,,,0.00,Acu-Link.com,2013-04-02 18:17:00,
2013-04-02 11:47:00,55.4,33.9,29.90,ESE,112,0.0,-999.0,44,-99.99,,,0.00,Acu-Link.com,2013-04-02 18:47:00,
2013-04-02 12:02:00,55.4,32.7,29.90,WSW,247,1.6,-999.0,42,-99.99,,,0.00,Acu-Link.com,2013-04-02 19:02:00,
2013-04-02 12:18:00,55.4,33.3,29.90,ESE,112,1.6,-999.0,43,-99.99,,,0.00,Acu-Link.com,2013-04-02 19:18:00,
2013-04-02 12:48:00,59.0,34.7,29.89,SE,135,1.6,-999.0,40,-99.99,,,0.00,Acu-Link.com,2013-04-02 19:48:00,
2013-04-02 13:04:00,59.0,32.8,29.88,NW,315,2.0,-999.0,37,-99.99,,,0.00,Acu-Link.com,2013-04-02 20:04:00,
2013-04-02 13:19:00,59.0,34.1,29.88,SSE,157,0.0,-999.0,39,-99.99,,,0.00,Acu-Link.com,2013-04-02 20:19:00,
2013-04-02 13:34:00,59.0,34.7,29.87,SSE,157,1.1,-999.0,40,-99.99,,,0.00,Acu-Link.com,2013-04-02 20:34:00,
2013-04-02 13:50:00,57.2,33.7,29.88,ENE,67,0.0,-999.0,41,-99.99,,,0.00,Acu-Link.com,2013-04-02 20:50:00,
2013-04-02 14:20:00,57.2,33.1,29.87,ESE,112,0.0,-999.0,40,-99.99,,,0.00,Acu-Link.com,2013-04-02 21:20:00,
2013-04-02 14:35:00,57.2,35.5,29.86,ESE,112,1.1,-999.0,44,-99.99,,,0.00,Acu-Link.com,2013-04-02 21:35:00,
2013-04-02 14:50:00,55.4,33.9,29.86,ESE,112,1.6,-999.0,44,-99.99,,,0.00,Acu-Link.com,2013-04-02 21:50:00,
2013-04-02 15:05:00,57.2,35.5,29.86,SW,225,2.7,-999.0,44,-99.99,,,0.00,Acu-Link.com,2013-04-02 22:05:00,
2013-04-02 15:20:00,57.2,34.3,29.85,NW,315,0.0,-999.0,42,-99.99,,,0.00,Acu-Link.com,2013-04-02 22:20:00,
2013-04-02 16:22:00,51.8,38.8,29.86,NNE,22,0.0,-999.0,61,-99.99,,,0.00,Acu-Link.com,2013-04-02 23:22:00,
2013-04-02 16:37:00,51.8,37.9,29.87,NNE,22,1.1,-999.0,59,-99.99,,,0.00,Acu-Link.com,2013-04-02 23:37:00,
2013-04-02 16:52:00,51.8,41.2,29.88,SSE,157,1.1,-999.0,67,-99.99,,,0.00,Acu-Link.com,2013-04-02 23:52:00,
2013-04-02 17:08:00,50.0,40.2,29.88,NNE,22,2.0,-999.0,69,-99.99,,,0.00,Acu-Link.com,2013-04-03 00:08:00,
2013-04-02 17:38:00,50.0,39.1,29.88,East,90,1.1,-999.0,66,-99.99,,,0.00,Acu-Link.com,2013-04-03 00:38:00,
2013-04-02 17:54:00,50.0,39.1,29.89,West,270,1.1,-999.0,66,-99.99,,,0.00,Acu-Link.com,2013-04-03 00:54:00,
2013-04-02 18:09:00,48.2,37.8,29.89,West,270,2.0,-999.0,67,-99.99,,,0.00,Acu-Link.com,2013-04-03 01:09:00,
2013-04-02 18:24:00,48.2,38.1,29.90,South,180,0.0,-999.0,68,-99.99,,,0.00,Acu-Link.com,2013-04-03 01:24:00,
2013-04-02 18:39:00,46.4,36.8,29.90,WSW,247,1.6,-999.0,69,-99.99,,,0.00,Acu-Link.com,2013-04-03 01:39:00,
2013-04-02 18:54:00,46.4,38.2,29.90,SSE,157,0.0,-999.0,73,-99.99,,,0.00,Acu-Link.com,2013-04-03 01:54:00,
2013-04-02 19:09:00,46.4,38.2,29.89,NW,315,0.0,-999.0,73,-99.99,,,0.00,Acu-Link.com,2013-04-03 02:09:00,
2013-04-02 19:39:00,44.6,37.5,29.89,East,90,0.0,-999.0,76,-99.99,,,0.00,Acu-Link.com,2013-04-03 02:39:00,
2013-04-02 19:55:00,42.8,36.4,29.89,ENE,67,0.0,-999.0,78,-99.99,,,0.00,Acu-Link.com,2013-04-03 02:55:00,
2013-04-02 20:10:00,42.8,36.7,29.89,ENE,67,0.0,-999.0,79,-99.99,,,0.00,Acu-Link.com,2013-04-03 03:10:00,
2013-04-02 20:25:00,42.8,37.1,29.89,ESE,112,0.0,-999.0,80,-99.99,,,0.00,Acu-Link.com,2013-04-03 03:25:00,
2013-04-02 20:40:00,41.0,35.9,29.91,NE,45,0.0,-999.0,82,-99.99,,,0.00,Acu-Link.com,2013-04-03 03:40:00,
2013-04-02 20:55:00,41.0,36.2,29.91,NE,45,0.0,-999.0,83,-99.99,,,0.00,Acu-Link.com,2013-04-03 03:55:00,
2013-04-02 21:10:00,41.0,35.9,29.91,NW,315,0.0,-999.0,82,-99.99,,,0.00,Acu-Link.com,2013-04-03 04:10:00,
2013-04-02 21:25:00,41.0,36.2,29.92,ENE,67,0.0,-999.0,83,-99.99,,,0.00,Acu-Link.com,2013-04-03 04:25:00,
2013-04-02 22:11:00,41.0,37.1,29.92,ENE,67,0.0,-999.0,86,-99.99,,,0.00,Acu-Link.com,2013-04-03 05:11:00,
2013-04-02 22:26:00,39.2,35.7,29.92,ENE,67,0.0,-999.0,87,-99.99,,,0.00,Acu-Link.com,2013-04-03 05:26:00,
2013-04-02 22:42:00,39.2,35.7,29.92,ENE,67,0.0,-999.0,87,-99.99,,,0.00,Acu-Link.com,2013-04-03 05:42:00,
2013-04-02 22:57:00,39.2,35.4,29.92,ENE,67,0.0,-999.0,86,-99.99,,,0.00,Acu-Link.com,2013-04-03 05:57:00,
2013-04-02 23:12:00,37.4,34.5,29.92,ESE,112,0.0,-999.0,89,-99.99,,,0.00,Acu-Link.com,2013-04-03 06:12:00,
2013-04-02 23:42:00,37.4,34.5,29.93,NE,45,0.0,-999.0,89,-99.99,,,0.00,Acu-Link.com,2013-04-03 06:42:00,
2013-04-02 23:57:00,37.4,34.2,29.94,WNW,292,0.0,-999.0,88,-99.99,,,0.00,Acu-Link.com,2013-04-03 06:57:00,